DW5435 Weather Reports


Display with metric or nautical units.
time (UTC)temp
F
wind
direction
speed
MPH
gust
MPH
rain 1hr
in
rain 24hr
in
rain mn
in
humidity
%
barometer
mb
20260505173016 83 0.0 0.0 0.00 0.00 0.00 40 1016.5
20260505172016 83 0.0 0.0 0.00 0.00 0.00 42 1016.4
20260505171016 83 0.0 0.0 0.00 0.00 0.00 42 1016.5
20260505170016 82 0.0 0.0 0.00 0.00 0.00 44 1016.8
20260505165016 81 0.0 0.0 0.00 0.00 0.00 44 1016.7
20260505164017 81 0.0 0.0 0.00 0.00 0.00 46 1016.9
20260505163017 80 0.0 0.0 0.00 0.00 0.00 48 1017.1
20260505162056 80 0.0 0.0 0.00 0.00 0.00 49 1017.2
20260505161016 79 0.0 0.0 0.00 0.00 0.00 48 1017.1
20260505153016 75 0.0 0.0 0.00 0.00 0.00 56 1017.3
20260505152057 74 0.0 0.0 0.00 0.00 0.00 58 1017.3
20260505151016 73 0.0 0.0 0.00 0.00 0.00 61 1017.1
20260505125016 52 0.0 0.0 0.00 0.00 0.00 82
20260505124016 52 0.0 0.0 0.00 0.00 0.00 82
20260505123016 52 0.0 0.0 0.00 0.00 0.00 82
20260505122037 52 0.0 0.0 0.00 0.00 0.00 82
20260505121016 52 0.0 0.0 0.00 0.00 0.00 82
20260505120016 51 0.0 0.0 0.00 0.00 0.00 82
20260505115016 51 0.0 0.0 0.00 0.00 0.00 82
20260505114016 51 0.0 0.0 0.00 0.00 0.00 81
20260505113037 51 0.0 0.0 0.00 0.00 0.00 80
20260505112016 52 0.0 0.0 0.00 0.00 0.00 80
20260505111016 52 0.0 0.0 0.00 0.00 0.00 80
20260505102017 52 0.0 0.0 0.00 0.00 0.00 79
20260505101017 52 0.0 0.0 0.00 0.00 0.00 79
20260505100016 53 0.0 0.0 0.00 0.00 0.00 79 1015.4
20260505095016 53 0.0 0.0 0.00 0.00 0.00 79 1015.4
20260505094016 53 0.0 0.0 0.00 0.00 0.00 78 1015.3
20260505093036 53 0.0 0.0 0.00 0.00 0.00 78 1015.4
20260505092016 53 0.0 0.0 0.00 0.00 0.00 78 1015.5
20260505091057 53 0.0 0.0 0.00 0.00 0.00 77 1015.7
20260505090016 53 0.0 0.0 0.00 0.00 0.00 77 1015.6
20260505085056 53 0.0 0.0 0.00 0.00 0.00 77 1015.5
20260505084016 54 0.0 0.0 0.00 0.00 0.00 77 1015.6
20260505083016 54 0.0 0.0 0.00 0.00 0.00 77 1015.8
20260505082016 54 0.0 0.0 0.00 0.00 0.00 75 1015.6
20260505081016 54 0.0 0.0 0.00 0.00 0.00 76 1015.4
20260505080016 54 0.0 0.0 0.00 0.00 0.00 76 1015.4
20260505075016 55 0.0 0.0 0.00 0.00 0.00 75 1015.4
20260505074016 55 0.0 0.0 0.00 0.00 0.00 75 1015.3
20260505073016 55 0.0 0.0 0.00 0.00 0.00 74 1015.4
20260505072017 56 0.0 0.0 0.00 0.00 0.00 74 1015.4
20260505071043 56 0.0 0.0 0.00 0.00 0.00 74 1015.4
20260505070036 56 0.0 0.0 0.00 0.00 0.00 73 1015.4
20260505065016 56 0.0 0.0 0.00 0.00 0.00 72 1015.5
20260505064016 57 0.0 0.0 0.00 0.00 0.00 72 1015.5
20260505063016 57 0.0 0.0 0.00 0.00 0.00 73 1015.6
20260505062016 57 0.0 0.0 0.00 0.00 0.00 73 1015.7
20260505061016 57 0.0 0.0 0.00 0.00 0.00 72 1015.7
20260505060016 58 0.0 0.0 0.00 0.00 0.00 72 1015.7
20260505055016 58 0.0 0.0 0.00 0.00 0.00 73 1015.8
20260505054036 58 0.0 0.0 0.00 0.00 0.00 72 1015.9
20260505053016 59 0.0 0.0 0.00 0.00 0.00 71 1015.9
20260505052016 59 0.0 0.0 0.00 0.00 0.00 71 1015.8
20260505051016 59 0.0 0.0 0.00 0.00 0.00 69 1015.8
20260505041016 61 0.0 0.0 0.00 0.00 0.00 67 1015.9
20260505040016 62 0.0 0.0 0.00 0.00 0.00 66 1015.8
20260505035017 62 0.0 0.0 0.00 0.00 0.00 63 1015.9
20260505034015 62 0.0 0.0 0.00 0.00 0.00 63 1016.0
20260505033015 62 0.0 0.0 0.00 0.00 0.00 62 1015.9
20260505032017 63 0.0 0.0 0.00 0.00 0.00 63 1015.9
20260505031017 63 0.0 0.0 0.00 0.00 0.00 63 1015.9
20260505030015 63 0.0 0.0 0.00 0.00 0.00 64 1015.8
20260505025015 64 0.0 0.0 0.00 0.00 0.00 63 1015.8
20260505024017 64 0.0 0.0 0.00 0.00 0.00 63 1015.7
20260505023017 64 0.0 0.0 0.00 0.00 0.00 61 1015.5
20260505022017 65 0.0 0.0 0.00 0.00 0.00 61 1015.3
20260505021015 65 0.0 0.0 0.00 0.00 0.00 60 1015.2
20260505020017 66 0.0 0.0 0.00 0.00 0.00 61 1015.1
20260505015017 67 0.0 0.0 0.00 0.00 0.00 60 1015.0
20260505014017 67 0.0 0.0 0.00 0.00 0.00 59 1015.0
20260505013015 68 0.0 0.0 0.00 0.00 0.00 58 1014.8
20260505012015 69 0.0 0.0 0.00 0.00 0.00 57 1014.8
20260505011037 69 0.0 0.0 0.00 0.00 0.00 55 1014.7
20260505010037 70 0.0 0.0 0.00 0.00 0.00 54 1014.7
20260505005517 0 0.0 0.0 0.00 0.00 0.00
20260505004517 0 0.0 0.0 0.00 0.00 0.00
20260505003017 0 0.0 0.0 0.00 0.00 0.00
20260505002035 0 0.0 0.0 0.00 0.00 0.00
20260505001037 0 0.0 0.0 0.00 0.00 0.00
20260505000517 0 0.0 0.0 0.00 0.00 0.00
20260504235517 0 0.0 0.0 0.00 0.00 0.00
20260504234017 0 0.0 0.0 0.00 0.00 0.00
20260504233017 0 0.0 0.0 0.00 0.00 0.00
20260504232037 0 0.0 0.0 0.00 0.00 0.00
20260504230517 0 0.0 0.0 0.00 0.00 0.00
20260504225517 0 0.0 0.0 0.00 0.00 0.00
20260504224517 0 0.0 0.0 0.00 0.00 0.00
20260504224016 0 0.0 0.0 0.00 0.00 0.00
20260504223016 0 0.0 0.0 0.00 0.00 0.00
20260504221537 0 0.0 0.0 0.00 0.00 0.00
20260504220537 0 0.0 0.0 0.00 0.00 0.00
20260504215517 76 0.0 0.0 0.00 0.00 0.00 46 1014.3
20260504213517 77 0.0 0.0 0.00 0.00 0.00 47 1014.4
20260504212517 77 0.0 0.0 0.00 0.00 0.00 43 1014.4
20260504211517 77 0.0 0.0 0.00 0.00 0.00 43 1014.3
20260504210517 77 0.0 0.0 0.00 0.00 0.00 41 1014.4
20260504205517 77 0.0 0.0 0.00 0.00 0.00 42 1014.5
20260504204537 77 0.0 0.0 0.00 0.00 0.00 42 1014.5
20260504203557 77 0.0 0.0 0.00 0.00 0.00 43 1014.7
20260504202516 77 0.0 0.0 0.00 0.00 0.00 40 1014.7
20260504201516 78 0.0 0.0 0.00 0.00 0.00 40 1014.8
20260504200519 78 0.0 0.0 0.00 0.00 0.00 42 1014.9
20260504195517 78 0.0 0.0 0.00 0.00 0.00 42 1015.0
20260504194517 78 0.0 0.0 0.00 0.00 0.00 41 1015.1
20260504193517 78 0.0 0.0 0.00 0.00 0.00 40 1015.3
20260504192517 78 0.0 0.0 0.00 0.00 0.00 41 1015.4
20260504191517 78 0.0 0.0 0.00 0.00 0.00 41 1015.5
20260504190537 78 0.0 0.0 0.00 0.00 0.00 41 1015.7
20260504185517 78 0.0 0.0 0.00 0.00 0.00 41 1015.9
20260504184516 78 0.0 0.0 0.00 0.00 0.00 39 1016.0
20260504183516 78 0.0 0.0 0.00 0.00 0.00 40 1016.2
20260504182517 78 0.0 0.0 0.00 0.00 0.00 40 1016.3
20260504181516 79 0.0 0.0 0.00 0.00 0.00 41 1016.4
20260504180516 79 0.0 0.0 0.00 0.00 0.00 42 1016.5
20260504175517 80 0.0 0.0 0.00 0.00 0.00 38 1016.6
20260504174516 80 0.0 0.0 0.00 0.00 0.00 40 1016.8
20260504173516 80 0.0 0.0 0.00 0.00 0.00 39 1017.0